Powrót do katalogu

STARLINK-32013

AktywnyŁącznośćVLEO
NORAD 60103·PAYLOAD·🇺🇸 United States

Wystrzelony Jun 23, 2024 z Cape Canaveral Space Force Station

Loading…

Następne Przeloty (najbliższe 24 godziny)

TLE

ŚwieżeSource: CelesTrak SupGP

Epoka: Sep 14, 2026, 20:35 UTC

1 60103C 24117N   26257.85812500  .00044919  00000+0  13272-2 0  2576
2 60103  53.1564 236.3970 0001255  99.6360  59.7111 15.34366924    10

Śledź STARLINK-32013 w czasie rzeczywistym z AllMySat

Download on the App Store